Location: Newark
(36.0797°N, 3.9744°E)
Time: 15:29:00
(UTC+00:00)

Tiros 1 - All Passes

Search period start: 06 December 2019 00:00
Search period end: 16 December 2019 00:00
Orbit: 630 x 664 km, 48.4° (Epoch: 06 December)

Date Brightness Start Highest point End Pass type
(mag) Time Alt. Az. Time Alt. Az. Time Alt. Az.
06 Dec - 05:40:29 10° S 05:44:04 22° SE 05:47:38 10° E visible
06 Dec - 07:21:16 10° WSW 07:25:56 65° NNW 07:30:34 10° NE daylight
06 Dec - 09:05:08 10° WNW 09:08:46 22° NNW 09:12:24 10° NE daylight
06 Dec - 10:49:02 10° NW 10:52:15 18° N 10:55:28 10° NE daylight
06 Dec - 12:31:08 10° NW 12:35:27 37° NNE 12:39:44 10° E daylight
06 Dec - 14:13:17 10° WNW 14:17:41 45° SW 14:22:05 10° SSE daylight
07 Dec - 06:05:18 10° SW 06:09:52 52° SE 06:14:25 10° ENE visible
07 Dec - 07:47:54 10° W 07:52:12 34° NNW 07:56:28 10° NE daylight
07 Dec - 09:32:15 10° NW 09:35:27 18° N 09:38:37 10° NE daylight
07 Dec - 11:15:12 10° NW 11:18:54 23° NNE 11:22:35 10° ENE daylight
07 Dec - 12:57:04 10° NW 13:01:40 73° NE 13:06:17 10° ESE daylight
07 Dec - 14:40:16 10° W 14:43:27 19° SW 14:46:39 10° S daylight
08 Dec - 04:50:39 10° S 04:54:04 20° SE 04:57:27 10° E visible
08 Dec - 06:31:11 10° WSW 06:35:53 71° NW 06:40:33 10° NE daylight
08 Dec - 08:14:58 10° WNW 08:18:41 23° NNW 08:22:23 10° NE daylight
08 Dec - 09:58:57 10° NW 10:02:09 18° N 10:05:20 10° NE daylight
08 Dec - 11:41:07 10° NW 11:45:23 35° NNE 11:49:37 10° E daylight
08 Dec - 13:23:13 10° WNW 13:27:41 49° SW 13:32:08 10° SSE daylight
09 Dec - 05:15:19 10° SSW 05:19:51 47° SE 05:24:21 10° ENE visible
09 Dec - 06:57:46 10° W 07:02:08 37° NNW 07:06:28 10° NE daylight
09 Dec - 08:42:06 10° NW 08:45:20 18° N 08:48:34 10° NE daylight
09 Dec - 10:25:10 10° NW 10:28:49 22° NNE 10:32:26 10° ENE daylight
09 Dec - 12:07:01 10° NW 12:11:39 67° NE 12:16:14 10° ESE daylight
09 Dec - 13:50:04 10° W 13:53:28 20° SW 13:56:51 10° S daylight
10 Dec - 04:00:51 10° S 04:04:04 18° SE 04:07:15 10° E visible
10 Dec - 05:41:07 10° WSW 05:45:51 77° NW 05:50:32 10° NE visible
10 Dec - 07:24:48 10° WNW 07:28:36 24° NNW 07:32:22 10° NE daylight
10 Dec - 09:08:52 10° NW 09:12:03 18° N 09:15:14 10° NE daylight
10 Dec - 10:51:06 10° NW 10:55:19 33° NNE 10:59:30 10° E daylight
10 Dec - 12:33:09 10° WNW 12:37:40 54° SW 12:42:10 10° SE daylight
11 Dec - 04:25:21 10° SSW 04:29:50 43° SE 04:34:17 10° ENE visible
11 Dec - 06:07:38 10° W 06:12:04 39° NNW 06:16:28 10° NE visible
11 Dec - 07:51:57 10° NW 07:55:14 18° N 07:58:30 10° NE daylight
11 Dec - 09:35:08 10° NW 09:38:44 21° NNE 09:42:18 10° ENE daylight
11 Dec - 11:17:00 10° NW 11:21:36 62° NNE 11:26:10 10° ESE daylight
11 Dec - 12:59:54 10° W 13:03:28 22° SW 13:07:02 10° S daylight
12 Dec - 03:11:06 10° S 03:14:04 17° SE 03:17:01 10° E visible
12 Dec - 04:51:03 10° SW 04:55:48 83° NW 05:00:30 10° NE visible
12 Dec - 06:34:38 10° WNW 06:38:30 25° NNW 06:42:22 10° NE daylight
12 Dec - 08:18:46 10° NW 08:21:57 18° N 08:25:07 10° NE daylight
12 Dec - 10:01:05 10° NW 10:05:15 32° NNE 10:09:23 10° E daylight
12 Dec - 11:43:06 10° WNW 11:47:39 59° SW 11:52:11 10° SE daylight
13 Dec - 03:35:23 10° SSW 03:39:48 39° SE 03:44:12 10° ENE visible
13 Dec - 05:17:30 10° W 05:22:00 41° NNW 05:26:28 10° NE visible
13 Dec - 07:01:46 10° NW 07:05:08 19° N 07:08:28 10° NE daylight
13 Dec - 08:45:05 10° NW 08:48:38 21° NNE 08:52:10 10° ENE daylight
13 Dec - 10:26:58 10° NW 10:31:34 58° NNE 10:36:07 10° ESE daylight
13 Dec - 12:09:44 10° WNW 12:13:29 24° SW 12:17:12 10° S daylight
14 Dec - 02:21:22 10° SSE 02:24:03 15° SE 02:26:45 10° E night (unlit)
14 Dec - 04:00:59 10° SW 04:05:45 89° NW 04:10:29 10° NE visible
14 Dec - 05:44:28 10° WNW 05:48:25 26° NNW 05:52:21 10° NE visible
14 Dec - 07:28:39 10° NW 07:31:50 18° N 07:35:01 10° NE daylight
14 Dec - 09:11:03 10° NW 09:15:10 30° NNE 09:19:16 10° E daylight
14 Dec - 10:53:02 10° WNW 10:57:38 65° SW 11:02:12 10° SE daylight
15 Dec - 02:45:26 10° SSW 02:49:47 36° SE 02:54:07 10° ENE visible
15 Dec - 04:27:23 10° WSW 04:31:56 44° NNW 04:36:27 10° NE visible
15 Dec - 06:11:36 10° NW 06:15:01 19° N 06:18:25 10° NE visible
15 Dec - 07:55:01 10° NW 07:58:32 20° NNE 08:02:02 10° ENE daylight
15 Dec - 09:36:56 10° NW 09:41:31 54° NNE 09:46:02 10° ESE daylight
15 Dec - 11:19:35 10° WNW 11:23:29 27° SW 11:27:21 10° S daylight
